Overview Statistics Trail Chart Weather Telemetry Raw packets
 

This is the latest recevied weather packets stored in our database for station/object WS4FSC-7. If no packets are shown the sender has not sent any weather packets the latest 10 day(s).

<< 67 68 69 70 71 72 73 >>
Time Temp. Humidity Pressure Rain* Wind** Luminosity Snow
1787929731 32.78° C 66% 1017 hPa - - 721 W/m² -
1787929370 32.22° C 66% 1017 hPa - - 715 W/m² -
1787928471 32.78° C 67% 1017 hPa - - 687 W/m² -
1787927391 32.22° C 68% 1017 hPa - - 618 W/m² -
1787927211 32.22° C 68% 1017 hPa - - 604 W/m² -
1787926671 32.22° C 68% 1017 hPa - - 569 W/m² -
1787926130 32.22° C 70% 1017 hPa - - 531 W/m² -
1787925770 31.67° C 71% 1017 hPa - - 507 W/m² -
1787925591 32.22° C 70% 1017 hPa - - 496 W/m² -
1787925411 32.22° C 69% 1017 hPa - - 481 W/m² -
1787925231 32.22° C 69% 1017 hPa - - 468 W/m² -
1787925051 31.67° C 70% 1017 hPa - - 459 W/m² -
1787924871 31.67° C 69% 1017 hPa - - 445 W/m² -
1787924692 31.67° C 70% 1017 hPa - - 437 W/m² -
1787924331 31.67° C 71% 1017 hPa - - 413 W/m² -
1787924126 31.67° C 71% 1017 hPa - - 394 W/m² -
1787923971 31.67° C 71% 1017 hPa - - 394 W/m² -
1787923790 31.67° C 71% 1016 hPa - - 383 W/m² -
1787923070 31.67° C 70% 1017 hPa - - 333 W/m² -
1787922170 31.11° C 71% 1016 hPa - - 289 W/m² -
1787921991 30.56° C 72% 1017 hPa - - 290 W/m² -
1787921632 30.56° C 74% 1016 hPa - - 295 W/m² -
1787921091 30.56° C 75% 1016 hPa - - 112 W/m² -
1787920191 30.56° C 76% 1016 hPa - - 99 W/m² -
1787919471 30.56° C 75% 1016 hPa - - 85 W/m² -

* Rain since midnight (hover to see other rain measurements)
** Current wind speed in m/s (hover to see current wind gust speed)